WetterOnline ( https://www.wetteronline.de )

Wetter aktuell Korlingen

Aktuelles Wetter: Trier/Petrisberg (273m)

6-stündlich | Neueste Meldungen
Ortszeit Temperatur Wetter
So, 20.10. 2:00 12.0° C Sprühregen
Sa, 19.10. 20:00 11.9° C leichter Regen
Sa, 19.10. 14:00 15.0° C bewölkt
Sa, 19.10. 8:00 11.2° C Sprühregen
Sa, 19.10. 2:00 9.3° C bedeckt
Fr, 18.10. 20:00 11.3° C bewölkt
Fr, 18.10. 14:00 12.4° C bedeckt
Fr, 18.10. 8:00 13.4° C wolkig
Ortszeit Temperatur Wetter
So, 20.10. 3:30 11.8° C bewölkt
So, 20.10. 3:20 11.8° C bewölkt
So, 20.10. 3:10 11.9° C bewölkt
So, 20.10. 3:00 11.9° C Sprühregen
So, 20.10. 2:50 11.9° C Sprühregen
So, 20.10. 2:40 11.9° C Sprühregen
So, 20.10. 2:30 11.9° C Sprühregen
So, 20.10. 2:00 12.0° C Sprühregen
So, 20.10. 1:30 12.0° C Sprühregen
So, 20.10. 1:00 11.9° C Regen
So, 20.10. 0:30 11.9° C Sprühregen
Ortszeit Relative Feuchte Sichtweite
So, 20.10. 2:00 97% 17 km
Sa, 19.10. 20:00 97% 40 km
Sa, 19.10. 14:00 75% 70 km
Sa, 19.10. 8:00 92% 45 km
Sa, 19.10. 2:00 86% 70 km
Fr, 18.10. 20:00 71% 70 km
Fr, 18.10. 14:00 74% 70 km
Fr, 18.10. 8:00 87% 70 km
Ortszeit Relative Feuchte Sichtweite
So, 20.10. 3:30 97% 30 km
So, 20.10. 3:20 97% -
So, 20.10. 3:10 97% -
So, 20.10. 3:00 97% 11 km
So, 20.10. 2:50 97% -
So, 20.10. 2:40 97% -
So, 20.10. 2:30 97% 3.4 km
So, 20.10. 2:00 97% 17 km
So, 20.10. 1:30 97% 15 km
So, 20.10. 1:00 97% 16 km
So, 20.10. 0:30 97% 6 km
Ortszeit Niederschlagsmenge Niederschlagsart
So, 20.10. 2:00 2 l/m2 in 6 Std. Regen
Sa, 19.10. 20:00 5 l/m2 in 12 Std. Regen
Sa, 19.10. 14:00 0.5 l/m2 in 6 Std. Regen
Sa, 19.10. 8:00 0.3 l/m2 in 12 Std. Regen
Sa, 19.10. 2:00 0.0 l/m2 in 6 Std. -
Fr, 18.10. 20:00 1 l/m2 in 12 Std. -
Fr, 18.10. 14:00 1 l/m2 in 6 Std. Regen
Fr, 18.10. 8:00 1 l/m2 in 12 Std. Regen
Ortszeit Niederschlagsmenge Niederschlagsart
So, 20.10. 3:30 0.1 l/m2 in 1 Std. Schnee
So, 20.10. 3:20 keine Meldung -
So, 20.10. 3:10 keine Meldung -
So, 20.10. 3:00 0.4 l/m2 in 1 Std. Regen
So, 20.10. 2:50 keine Meldung -
So, 20.10. 2:40 keine Meldung -
So, 20.10. 2:30 0.2 l/m2 in 1 Std. -
So, 20.10. 2:00 0.2 l/m2 in 1 Std. Regen
So, 20.10. 1:30 0.1 l/m2 in 1 Std. -
So, 20.10. 1:00 0.4 l/m2 in 1 Std. Regen
So, 20.10. 0:30 0.3 l/m2 in 1 Std. -
Ortszeit Stärke Spitze Richtung
km/h Bft. km/h Grad Sektor
So, 20.10. 2:00 4 1 11 10° N
Sa, 19.10. 20:00 7 2 47 140° SO
Sa, 19.10. 14:00 31 5 52 180° S
Sa, 19.10. 8:00 7 2 22 170° S
Sa, 19.10. 2:00 7 2 32 130° SO
Fr, 18.10. 20:00 18 3 58 210° SW
Fr, 18.10. 14:00 22 4 61 220° SW
Fr, 18.10. 8:00 26 4 44 190° S
Ortszeit Stärke Spitze Richtung
km/h Bft. km/h Grad Sektor
So, 20.10. 3:30 6 1 11 10° N
So, 20.10. 3:20 6 1 - 10° N
So, 20.10. 3:10 7 2 - 360° N
So, 20.10. 3:00 4 1 14 300° NW
So, 20.10. 2:50 4 1 - 300° NW
So, 20.10. 2:40 4 1 - 300° NW
So, 20.10. 2:30 6 1 9 310° NW
So, 20.10. 2:00 4 1 7 10° N
So, 20.10. 1:30 4 1 7 340° N
So, 20.10. 1:00 0 0 7 - -
So, 20.10. 0:30 4 1 7 290° W
Ortszeit Untergrenze Bedeckung Gattung
total tief tief mittel hoch
So, 20.10. 2:00 30 m 7/8 7/8 - - -
Sa, 19.10. 20:00 930 m 8/8 8/8 - - -
Sa, 19.10. 14:00 750 m 7/8 7/8 - - -
Sa, 19.10. 8:00 360 m 7/8 7/8 - - -
Sa, 19.10. 2:00 3900 m 8/8 8/8 - - -
Fr, 18.10. 20:00 6600 m 8/8 6/8 - - -
Fr, 18.10. 14:00 1500 m 8/8 8/8 - - -
Fr, 18.10. 8:00 570 m 7/8 4/8 - - -
Ortszeit Bedeckungsgrad in Achtel und Wolkenuntergrenze
So, 20.10. 3:30 7(120m)
So, 20.10. 3:20 7(120m)
So, 20.10. 3:10 7(120m) 7(600m)
So, 20.10. 3:00 1(<30m) 7(600m) 8(870m)
So, 20.10. 2:50 1(<30m) 7(600m) 8(870m)
So, 20.10. 2:40 2(30m) 7(540m) 8(870m)
So, 20.10. 2:30 2(<30m) 8(660m) 8(900m)
So, 20.10. 2:00 1(30m) 7(450m) 7(450m)
So, 20.10. 1:30 7(390m) 7(510m)
So, 20.10. 1:00 2(30m) 3(210m) 8(420m)
So, 20.10. 0:30 3(<30m) 7(360m) 7(510m)
Ortszeit Luftdruck NN (hPa) Tendenz (hPa in 3 Std.)
So, 20.10. 2:00 1008 - 0,1
Sa, 19.10. 20:00 1007 + 0,8
Sa, 19.10. 14:00 1006 - 1,0
Sa, 19.10. 8:00 1007 - 1,6
Sa, 19.10. 2:00 1010 - 1,1
Fr, 18.10. 20:00 1011 + 0,7
Fr, 18.10. 14:00 1010 + 0,7
Fr, 18.10. 8:00 1009 - 1,6
Ortszeit Luftdruck NN (hPa) Tendenz (hPa in 3 Std.)
So, 20.10. 3:30 1008 - 0,1
So, 20.10. 3:20 1008 keine Meldung
So, 20.10. 3:10 1008 keine Meldung
So, 20.10. 3:00 1008 - 0,2
So, 20.10. 2:50 1008 keine Meldung
So, 20.10. 2:40 1008 keine Meldung
So, 20.10. 2:30 1008 0,0
So, 20.10. 2:00 1008 - 0,1
So, 20.10. 1:30 1008 - 0,2
So, 20.10. 1:00 1008 0,0
So, 20.10. 0:30 1008 + 0,4
Ortszeit Schneehöhe (cm)
So, 20.10. 2:00 0
Sa, 19.10. 20:00 0
Sa, 19.10. 14:00 0
Sa, 19.10. 8:00 0
Sa, 19.10. 2:00 0
Fr, 18.10. 20:00 0
Fr, 18.10. 14:00 0
Fr, 18.10. 8:00 0
Ortszeit Schneehöhe (cm)
So, 20.10. 3:30 0
So, 20.10. 3:20 0
So, 20.10. 3:10 0
So, 20.10. 3:00 0
So, 20.10. 2:50 0
So, 20.10. 2:40 0
So, 20.10. 2:30 0
So, 20.10. 2:00 0
So, 20.10. 1:30 0
So, 20.10. 1:00 0
So, 20.10. 0:30 0
Link zu dieser Seite / Seite empfehlen

Das Wetter in ...